Torna al catalogo

HAWK-12A

AttivoMilitareSSO
NORAD 64623·PAYLOAD·🇺🇸 United States

Lanciato Jun 26, 2025 da Rocket Lab Launch Complex 1

Loading…

Prossimi Passaggi (prossime 24 ore)

TLE

AggiornatoSource: Space-Track

Epoca: Sep 14, 2026, 11:07 UTC

1 64623U 25138C   26257.46332108  .00002830  00000-0  13913-3 0  9992
2 64623  97.4453 258.8420 0013663 179.4175 180.7078 15.18774789 67413

Traccia HAWK-12A in tempo reale con AllMySat

Download on the App Store